TJS-3 AKM

Last updated on Wed Jan 26 2022 00:02:38 GMT+0000 (Coordinated Universal Time)

1 43917U 18110C 22025.70468337 -.00000077 00000+0 00000+0 0 9997 2 43917 0.4921 115.0538 0006067 7.3708 281.8745 0.98352709 11256
UTC large
Height (km)
Speed (km/s)
/
Latitude / Longitude
Inclination (degrees)
Orbital Period (minutes)
Azimuth
Elevation
Range (km)
Doppler Factor

Next 0 passes for location: London (51.5072 / 0.1276)

Sorry there are no passes over London.